Weather History for Anniston, AL

Change the Weather History Date:

Saturday, March 23, 2013

  Actual Average Record
Temperature  
Mean Temperature 56 °F 56 °F  
Max Temperature 66 °F 68 °F 87 °F (1995)
Min Temperature 46 °F 44 °F 26 °F (1955)
Degree Days  
Heating Degree Days 9    
Month to date heating degree days 324  
Since 1 July heating degree days 2387  
Growing Degree Days 5 (Base 50)    
Moisture  
Dew Point 48 °F    
Average Humidity 80    
Maximum Humidity 93    
Minimum Humidity 67    
Precipitation  
Precipitation 1.66 in 0.15 in 1.72 in (1965)
Month to date precipitation 3.36 3.75  
Year to date precipitation 17.31 13.35  
Sea Level Pressure  
Sea Level Pressure 29.86 in    
Wind  
Wind Speed 7 mph (ENE)    
Max Wind Speed 18 mph    
Max Gust Speed 25 mph    
Visibility 7 miles    
Events Rain , Thunderstorm    
T = Trace of Precipitation, MM = Missing Value Source: NWS Daily Summary

Daily Weather History Graph

Daily Weather History Graph

Search for Another Location

Airport:

Trip Planner

Search our weather history database for the weather conditions in past years. The results will help you decide how hot, cold, wet, or windy it might be!

Date:

Astronomy

Mar. 23, 2013 Rise Set
Actual Time 6:42 AM CDT 6:57 PM CDT
Civil Twilight 6:17 AM CDT 7:22 PM CDT
Nautical Twilight 5:48 AM CDT 7:51 PM CDT
Astronomical Twilight 5:19 AM CDT 8:20 PM CDT
Moon 3:32 PM CDT (3/23) 4:08 AM CDT (3/23)
Length of Visible Light 13h 04m
Length of Day
12h 14m
Waxing Gibbous, 85% of the Moon is Illuminated
Mar 23
Waxing Gibbous
Mar 27
Full
Apr 2
Last Quarter
Apr 10
New
Apr 18
First Quarter

Hourly Weather History & Observations

Time (CDT) Temp. Windchill Dew Point Humidity Pressure Visibility Wind Dir Wind Speed Gust Speed Precip Events Conditions
12:53 AM 48.0 °F - 43.0 °F 83% 29.97 in 10.0 mi ENE 6.9 mph - N/A   Overcast
1:53 AM 48.0 °F - 42.1 °F 80% 29.95 in 10.0 mi ENE 8.1 mph - N/A   Overcast
2:53 AM 48.0 °F - 42.1 °F 80% 29.93 in 10.0 mi ENE 8.1 mph - N/A   Overcast
3:53 AM 48.9 °F - 42.1 °F 77% 29.90 in 10.0 mi ENE 6.9 mph - N/A   Overcast
4:53 AM 46.9 °F - 43.0 °F 86% 29.91 in 6.0 mi NNE 5.8 mph - 0.09 in Rain , Thunderstorm Rain
5:21 AM 46.4 °F 44.3 °F 44.6 °F 93% 29.95 in 2.0 mi ENE 4.6 mph - 0.16 in Rain , Thunderstorm Heavy Rain
5:44 AM 46.4 °F 42.9 °F 44.6 °F 93% 29.93 in 4.0 mi ENE 6.9 mph - 0.25 in Rain Heavy Rain
5:53 AM 46.0 °F - 45.0 °F 96% 29.98 in 4.0 mi Calm Calm - 0.28 in Rain , Thunderstorm Thunderstorms and Rain
6:10 AM 46.4 °F 42.9 °F 44.6 °F 93% 29.94 in 2.5 mi East 6.9 mph - 0.12 in Rain , Thunderstorm Heavy Thunderstorms and Rain
6:22 AM 46.4 °F 42.9 °F 44.6 °F 93% 29.93 in 3.0 mi East 6.9 mph - 0.16 in Rain Rain
6:31 AM 46.4 °F 41.9 °F 44.6 °F 93% 29.93 in 4.0 mi ENE 9.2 mph - 0.18 in Rain , Thunderstorm Rain
6:45 AM 46.4 °F 43.5 °F 44.6 °F 93% 29.96 in 2.5 mi ENE 5.8 mph - 0.30 in Rain , Thunderstorm Heavy Thunderstorms and Rain
6:53 AM 46.0 °F 41.9 °F 44.1 °F 93% 29.95 in 2.0 mi ENE 8.1 mph - 0.38 in Rain , Thunderstorm Thunderstorms and Rain
7:02 AM 46.4 °F 43.5 °F 44.6 °F 93% 29.94 in 5.0 mi ENE 5.8 mph 16.1 mph 0.01 in Rain , Thunderstorm Thunderstorms and Rain
7:53 AM 46.0 °F 43.1 °F 44.1 °F 93% 30.00 in 3.0 mi ESE 5.8 mph - 0.18 in Rain , Thunderstorm Rain
8:18 AM 46.4 °F 43.5 °F 44.6 °F 93% 29.96 in 3.0 mi East 5.8 mph - 0.07 in Rain Rain
8:27 AM 46.4 °F 43.5 °F 44.6 °F 93% 29.95 in 3.0 mi ENE 5.8 mph - 0.09 in Rain Rain
8:35 AM 46.4 °F 42.4 °F 44.6 °F 93% 29.93 in 3.0 mi ENE 8.1 mph - 0.10 in Rain Light Rain
8:49 AM 46.4 °F 43.5 °F 44.6 °F 93% 29.94 in 6.0 mi NE 5.8 mph - 0.10 in   Overcast
8:53 AM 46.9 °F - 45.0 °F 93% 29.96 in 6.0 mi NE 6.9 mph - 0.10 in   Mostly Cloudy
9:01 AM 48.2 °F - 46.4 °F 93% 29.94 in 7.0 mi NE 8.1 mph - N/A   Overcast
9:53 AM 51.1 °F - 48.0 °F 89% 29.95 in 10.0 mi NNE 8.1 mph - N/A   Overcast
10:53 AM 54.0 °F - 50.0 °F 86% 29.94 in 10.0 mi ENE 5.8 mph - N/A   Overcast
11:00 AM 53.6 °F - 50.0 °F 88% 29.93 in 10.0 mi NE 5.8 mph - N/A   Overcast
11:53 AM 57.0 °F - 51.1 °F 81% 29.91 in 10.0 mi NE 5.8 mph - N/A   Overcast
12:53 PM 60.1 °F - 53.1 °F 78% 29.88 in 10.0 mi NE 6.9 mph - N/A   Overcast
1:53 PM 64.0 °F - 53.1 °F 67% 29.86 in 10.0 mi Calm Calm - N/A   Overcast
2:01 PM 62.6 °F - 53.6 °F 72% 29.85 in 10.0 mi ENE 3.5 mph - N/A   Overcast
2:53 PM 63.0 °F - 53.1 °F 70% 29.83 in 10.0 mi East 4.6 mph - N/A   Overcast
3:53 PM 64.9 °F - 54.0 °F 68% 29.80 in 10.0 mi ENE 5.8 mph - N/A   Overcast
4:53 PM 64.0 °F - 54.0 °F 70% 29.80 in 10.0 mi Variable 3.5 mph - N/A   Overcast
5:53 PM 63.0 °F - 54.0 °F 72% 29.80 in 10.0 mi East 4.6 mph - N/A   Overcast
6:53 PM 61.0 °F - 54.0 °F 78% 29.78 in 10.0 mi Variable 6.9 mph - N/A   Overcast
7:38 PM 60.8 °F - 53.6 °F 77% 29.78 in 10.0 mi East 8.1 mph - N/A   Overcast
7:53 PM 60.1 °F - 52.0 °F 75% 29.78 in 10.0 mi East 8.1 mph - N/A   Overcast
8:53 PM 57.9 °F - 52.0 °F 81% 29.73 in 10.0 mi ENE 11.5 mph 24.2 mph 0.00 in   Mostly Cloudy
9:32 PM 57.2 °F - 51.8 °F 82% 29.73 in 9.0 mi East 11.5 mph 18.4 mph 0.00 in Rain Light Rain
9:53 PM 57.0 °F - 52.0 °F 83% 29.73 in 9.0 mi ENE 9.2 mph 19.6 mph 0.00 in   Overcast
10:33 PM 55.4 °F - 51.8 °F 88% 29.72 in 10.0 mi East 8.1 mph - 0.00 in Thunderstorm Overcast
10:48 PM 55.4 °F - 51.8 °F 88% 29.69 in 7.0 mi ENE 10.4 mph - 0.01 in Rain Light Rain
10:53 PM 55.0 °F - 52.0 °F 89% 29.69 in 8.0 mi ENE 10.4 mph - 0.01 in Rain Light Rain
11:00 PM 55.4 °F - 51.8 °F 88% 29.69 in 9.0 mi East 6.9 mph - 0.00 in   Overcast
11:35 PM 55.4 °F - 51.8 °F 88% 29.69 in 9.0 mi ENE 10.4 mph - 0.04 in Rain , Thunderstorm Light Rain
11:53 PM 54.0 °F - 52.0 °F 93% 29.64 in 9.0 mi ENE 12.7 mph - 0.05 in Rain , Thunderstorm Light Thunderstorms and Rain